Regional Weather Roundup
Issued by NWS

Home | Current Version | Previous Version | Text Only | Print | Product List | Glossary Off
Versions: 1 2 3 4 5 6 7 8 9 10 11 12 13 14 15 16 17 18 19 20 21 22 23 24 25 26 27 28 29 30 31 32 33 34 35 36 37 38 39 40 41 42 43 44 45 46 47 48 49 50

295
ASUS43 KDTX 190810
RWRMI
MICHIGAN HOURLY REGIONAL WEATHER ROUNDUP
NATIONAL WEATHER SERVICE DETROIT/PONTIAC MI
300 AM EST MON FEB 19 2018

NOTE: "FAIR" INDICATES FEW OR NO CLOUDS BELOW 12,000 FEET WITH NO
SIGNIFICANT WEATHER AND/OR OBSTRUCTION TO VISIBILITY.

MIZ047>049-052>055-059>063-066>070-074>076-081>083-190900-
SOUTHEAST LOWER MICHIGAN

CITY           SKY/WX    TMP DP  RH WIND       PRES   REMARKS
ADRIAN         MOCLDY    30  27  88 S6        30.00F WCI  24
ALMA           MOCLDY    32  29  90 S6        29.96F WCI  26
ANN ARBOR      MOCLDY    32  28  85 E6        30.00F WCI  26
BAD AXE        FAIR      32  27  81 S17G23    30.00F WCI  21
CARO           FAIR      32  28  83 S7        29.98F WCI  26
DETROIT CITY   FAIR      32  27  81 S6        30.04F WCI  26
DETROIT        CLOUDY    32  27  81 SE5       30.03F WCI  27
FLINT          FAIR      34  27  75 S12       29.98F WCI  25
GROSSE ILE     FAIR      33  28  83 SE8       30.02F WCI  26
HILLSDALE      CLOUDY    34  30  86 SE10      29.95F WCI  26
HOWELL         FAIR      34  30  85 S10G17    29.98F WCI  26

CITY           SKY/WX    TMP DP  RH WIND       PRES   REMARKS
JACKSON        MOCLDY    36  30  79 SE13      29.96F WCI  27
LAMBERTVILLE   FAIR      33  28  82 SE5       30.01F WCI  29
LANSING        MOCLDY    35  29  78 S12       29.97S WCI  27
LAPEER         FAIR      32  27  81 SE6       30.01F WCI  26
MASON          FAIR      35  28  75 S9        29.96S WCI  27
MONROE         MOCLDY    31  28  86 E5        30.01F WCI  26
MT. CLEMENS    FAIR      29  29  99 SE8       30.03F WCI  22
PONTIAC        FAIR      32  27  81 SE9       29.99F WCI  24
PORT HOPE        N/A     33  25  72 S9        29.99F WCI  25
PORT HURON     FAIR      32  25  74 SE7       30.06F WCI  26
TRI CITIES     FAIR      32  26  78 S7        29.98F WCI  26
MIDLAND        FAIR      32  28  83 SE3       29.96F
TROY           FAIR      33  28  82 SE5       30.04F WCI  29
SAGINAW HB     FAIR      34  28  80 S7        29.98S WCI  28
$$
MIZ043>046-050>051-056>058-064>065-071>073-077>080-190900-
SOUTHWEST LOWER MICHIGAN

CITY           SKY/WX    TMP DP  RH WIND       PRES   REMARKS
BATTLE CREEK   CLOUDY    37  30  75 S7        29.96R WCI  32
BENTON HARBOR  CLOUDY    40  31  70 SE9       29.90F WCI  34
BIG RAPIDS     CLOUDY    31  27  83 MISG      29.91F
COLDWATER      CLOUDY    36  31  83 S7        29.95S WCI  31
FREMONT        MOCLDY    34  25  71 SE5       29.90F WCI  29
HOLLAND        CLOUDY    38  30  73 S9        29.91F WCI  31
GRAND RAPIDS   CLOUDY    39  30  70 S13       29.93F WCI  31
IONIA          CLOUDY    33  30  86 SE6       29.95R WCI  28
KALAMAZOO      MOCLDY    39  30  70 S7        29.95R WCI  34
LUDINGTON      FAIR      35  30  81 SE7       29.87F WCI  29
MARSHALL       CLOUDY    37  30  78 SW3       29.97R
MOUNT PLEASANT FAIR      32  27  82 SE3       29.94F
MUSKEGON       CLOUDY    39  29  67 S9        29.90F WCI  33
SOUTH HAVEN    LGT RAIN  41  32  70 S8        29.91F
$$
MIZ016>042-190900-
NORTHERN LOWER MICHIGAN

CITY           SKY/WX    TMP DP  RH WIND       PRES   REMARKS
ALPENA         FAIR      28  25  88 SE5       29.98S WCI  23
BEAVER ISLAND  MOCLDY    33  24  68 SE5       29.89F WCI  29
BELLAIRE       CLOUDY    33  28  83 S5        29.91F WCI  28
CADILLAC       FAIR      32  28  86 S7        29.88F WCI  26
CHARLEVOIX     CLOUDY    33  25  72 SE6       29.92F WCI  28
FRANKFORT      FAIR      35  28  73 SE6       29.87F WCI  30
GAYLORD        FAIR      29  27  92 S12       29.89F WCI  19
GRAYLING       FAIR      29  26  91 S5        29.90F WCI  23
HARBOR SPRINGS CLOUDY    33  24  70 CALM      29.91F
HOUGHTON LAKE  MOCLDY    29  26  89 S7        29.92F WCI  22
MANISTEE       FAIR      37  28  70 VRB5      29.88F WCI  33
OSCODA         FAIR      30  25  81 S7        29.99F WCI  23
PELLSTON       CLOUDY    33  24  69 SE5       29.91F WCI  29
ROGERS CITY    FAIR      30  25  80 S6        29.95F WCI  24
TRAVERSE CITY  MOCLDY    35  27  72 S3        29.88F
$$
MIZ007>008-015-190900-
EASTERN UPPER MICHIGAN

CITY           SKY/WX    TMP DP  RH WIND       PRES   REMARKS
KINROSS        CLOUDY    30  24  78 S8        29.90F WCI  22
MACKINAC ISLAN CLOUDY    34  21  59 S7        29.91F WCI  28
NEWBERRY       CLOUDY    33  32  93 S13       29.86S WCI  24
S. S. MARIE    CLOUDY    33  25  72 E5        29.90F WCI  29
MUNISING         N/A     35  30  82 S10       29.84R WCI  27
$$
MIZ004>006-011>014-085-190900-
CENTRAL UPPER MICHIGAN

CITY           SKY/WX    TMP DP  RH WIND       PRES   REMARKS
MANISTIQUE     CLOUDY    33  32  94 S7        29.87S WCI  27
ESCANABA       CLOUDY    32  28  85 CALM      29.86R
MENOMINEE      CLOUDY    35  29  78 S3        29.84S
SAWYER-GWINN   CLOUDY    30  24  81 S5        29.83R WCI  25
$$
MIZ001>003-009>011-084-190900-
WESTERN UPPER MICHIGAN

CITY           SKY/WX    TMP DP  RH WIND       PRES   REMARKS
IRON MOUNTAIN  CLOUDY    29  24  82 CALM      29.80R
HOUGHTON       CLOUDY    21  16  81 NE15G22   29.84S WCI   8
COPPER HARBOR    N/A     22  18  85 E17       29.89R WCI   8
IRONWOOD       MIX PCPN  20  18  92 N7        29.85R FOG     WCI  11
$$

ABBREVIATIONS USED IN REMARKS
   TC - TEMPERATURE IN CELSIUS
  WCI - WIND CHILL INDEX
   HX - HEAT INDEX
  VSB - VISIBILITY





USA.gov is the U.S. government's official web portal to all federal, state and local government web resources and services.